Regional Weather Roundup
Issued by NWS Albany, NY

Home | Current Version | Previous Version | Text Only | Print | Product List | Glossary On
Versions: 1 2 3 4 5 6 7 8 9 10 11 12 13 14 15 16 17 18 19 20 21 22 23 24 25 26 27 28 29 30 31 32 33 34 35 36 37 38 39 40 41 42 43 44 45 46 47 48 49 50
000
ASUS41 KALY 200710
RWRALY

NEW YORK STATE HOURLY WEATHER ROUNDUP
NATIONAL WEATHER SERVICE ALBANY NY
200 AM EST MON FEB 20 2017

NOTE: "FAIR" INDICATES FEW OR NO CLOUDS BELOW 12,000 FEET WITH NO
SIGNIFICANT WEATHER AND/OR NO OBSTRUCTIONS TO VISIBILITY.

NYZ032-033-038>043-046>054-057>066-NYZ062>081-082-084-200800-
EAST


CITY           SKY/WX    TMP DP  RH WIND       PRES   REMARKS
ALBANY         PTCLDY    40  30  67 NW8       30.02R WCI  34
GLENS FALLS    CLOUDY    40  29  64 NE3       30.02R
POUGHKEEPSIE   CLEAR     35  29  78 CALM      30.00R
NEWBURGH       CLEAR     39  32  75 NW9       30.02R WCI  33
MONTGOMERY     PTCLDY    43  31  62 W8        30.00R
WHITE PLAINS   PTCLDY    41  31  67 W3        29.99R
ISLIP          CLEAR     41  32  70 N5        29.99R
NEW YORK CITY  PTCLDY    50  33  52 NW14      30.01R
CENTRAL PARK   PTCLDY    50  33  52 W8        30.04R
$$

NYZ005>009-017-018-044>046-055-056-200800-
CENTRAL


CITY           SKY/WX    TMP DP  RH WIND       PRES   REMARKS
FULTON         CLEAR     36  27  69 N6        30.12R WCI  31
SYRACUSE       PTCLDY    34  30  85 NW6       30.11R WCI  29
ROME           PTCLDY    35  27  72 NW8       30.09R WCI  29
ELMIRA         CLEAR     38  28  67 VRB6      30.10R WCI  33
BINGHAMTON     CLEAR     34  28  79 NW10      30.04S WCI  26
MONTICELLO     CLOUDY    37  28  70 W9        30.02R WCI  31
$$

NYZ026>034-041>043-087-200800-
NORTH


CITY           SKY/WX    TMP DP  RH WIND       PRES   REMARKS
WATERTOWN      CLEAR     33  26  75 N8        30.13R WCI  26
FORT DRUM      NOT AVBL
OGDENSBURG     FAIR      31  24  76 N6        30.14R WCI  25
MASSENA        PTCLDY    30  21  69 NW6       30.15R WCI  24
SARANAC LAKE   CLOUDY    29  21  72 N5        30.02R WCI  24
PLATTSBURGH    CLOUDY    36  22  56 NW12      30.08R WCI  28
$$

NYZ001>004-010>016-019>021-085-200800-
WEST


CITY           SKY/WX    TMP DP  RH WIND       PRES   REMARKS
NIAGARA FALLS  CLEAR     33  27  78 NW5       30.16R WCI  29
BUFFALO        PTCLDY    32  29  88 SW3       30.17R
DUNKIRK        CLEAR     28  27  96 S5        30.18R WCI  23
JAMESTOWN      CLEAR     36  28  75 N6        30.14R WCI  31
WELLSVILLE     CLEAR     34  29  82 NW10      30.12R WCI  26
ROCHESTER      PTCLDY    34  28  79 W3        30.15R
PENN YAN       CLEAR     38  28  67 NW5       30.12R WCI  34
$$

             KEY
       WCI = WIND CHILL INDEX
       VSB = VISIBILITY
       HX  = HEAT INDEX
$$



USA.gov is the U.S. government's official web portal to all federal, state and local government web resources and services.